Retour au catalogue

COSMOS 2593

ActifNavigationSSO
NORAD 65269·PAYLOAD·🇷🇺 Russia

Lancé Aug 21, 2025 depuis Plesetsk Cosmodrome

Loading…

Prochains Passages (prochaines 24 heures)

TLE

FraisSource: Space-Track

Époque: Sep 14, 2026, 21:41 UTC

1 65269U 25182C   26257.90361729  .00082364  44428-5  19583-3 0  9994
2 65269  96.5788 187.0883 0006442 123.2396 236.9501 15.96729004 62007

Suivez COSMOS 2593 en temps réel avec AllMySat

Download on the App Store